FW7441 Weather Reports


Display with metric or nautical units.
time (UTC)temp
F
wind
direction
speed
MPH
gust
MPH
rain 1hr
in
rain 24hr
in
rain mn
in
humidity
%
barometer
mb
20260509062948 54 257 1.0 1.0 0.00 0.00 0.00 90 1004.2
20260509062445 54 244 0.0 1.0 0.00 0.00 0.00 90 1004.6
20260509061943 54 178 2.0 2.0 0.00 0.00 0.00 90 1004.6
20260509061440 54 204 1.0 2.0 0.00 0.00 0.00 90 1004.5
20260509060937 54 236 2.0 2.0 0.00 0.00 0.00 90 1004.5
20260509060434 54 219 2.0 2.0 0.00 0.00 0.00 90 1004.5
20260509055929 54 242 2.0 3.0 0.00 0.00 0.00 90 1004.9
20260509055425 54 267 1.0 2.0 0.00 0.00 0.00 89 1004.5
20260509054922 54 227 2.0 2.0 0.00 0.00 0.00 89 1004.5
20260509054419 54 252 0.0 0.0 0.00 0.00 0.00 88 1004.9
20260509053917 54 183 1.0 2.0 0.00 0.00 0.00 88 1004.9
20260509053415 55 225 2.0 2.0 0.00 0.00 0.00 87 1005.1
20260509052912 55 205 4.0 8.0 0.00 0.00 0.00 87 1004.9
20260509052409 55 191 0.0 1.0 0.00 0.00 0.00 86 1004.6
20260509051907 55 230 1.0 2.0 0.00 0.00 0.00 86 1004.6
20260509051405 55 202 3.0 5.0 0.00 0.00 0.00 85 1005.0
20260509050901 55 181 1.0 2.0 0.00 0.00 0.00 84 1004.9
20260509050358 55 171 2.0 5.0 0.00 0.00 0.00 84 1004.8
20260509045855 55 251 2.0 2.0 0.00 0.00 0.00 83 1004.6
20260509045352 55 172 2.0 3.0 0.00 0.00 0.00 82 1004.8
20260509044849 55 211 2.0 2.0 0.00 0.00 0.00 82 1004.5
20260509044347 56 197 0.0 1.0 0.00 0.00 0.00 81 1004.6
20260509043843 56 256 4.0 5.0 0.00 0.00 0.00 80 1004.6
20260509043339 56 124 1.0 2.0 0.00 0.00 0.00 80 1004.5
20260509042835 56 227 2.0 3.0 0.00 0.00 0.00 80 1004.6
20260509042331 56 222 2.0 2.0 0.00 0.00 0.00 79 1004.4
20260509041828 55 208 3.0 3.0 0.00 0.00 0.00 79 1004.6
20260509041325 56 206 0.0 1.0 0.00 0.00 0.00 78 1004.8
20260509040823 55 225 1.0 1.0 0.00 0.00 0.00 78 1004.9
20260509040321 55 217 0.0 1.0 0.00 0.00 0.00 78 1004.8
20260509035818 54 220 1.0 1.0 0.00 0.00 0.00 78 1004.8
20260509035315 54 251 3.0 3.0 0.00 0.00 0.00 78 1004.8
20260509034811 54 197 2.0 3.0 0.00 0.00 0.00 78 1004.8
20260509034309 54 181 2.0 2.0 0.00 0.00 0.00 78 1004.8
20260509033805 54 205 1.0 1.0 0.00 0.00 0.00 78 1004.6
20260509033303 53 150 3.0 3.0 0.00 0.00 0.00 79 1004.9
20260509032759 53 208 1.0 2.0 0.00 0.00 0.00 79 1005.1
20260509032256 53 223 1.0 1.0 0.00 0.00 0.00 79 1005.0
20260509031754 53 187 0.0 0.0 0.00 0.00 0.00 79 1005.2
20260509031251 53 201 1.0 1.0 0.00 0.00 0.00 79 1005.1
20260509030749 53 198 1.0 1.0 0.00 0.00 0.00 80 1004.9
20260509030246 53 188 1.0 1.0 0.00 0.00 0.00 80 1004.9
20260509025743 53 179 2.0 2.0 0.00 0.00 0.00 79 1005.0
20260509025239 53 217 0.0 1.0 0.00 0.00 0.00 79 1005.1
20260509024734 53 201 0.0 1.0 0.00 0.00 0.00 79 1005.3
20260509024230 53 167 1.0 1.0 0.00 0.00 0.00 79 1005.2
20260509023728 53 213 0.0 1.0 0.00 0.00 0.00 78 1005.4
20260509023225 54 192 1.0 1.0 0.00 0.00 0.00 78 1005.5
20260509022721 54 211 1.0 1.0 0.00 0.00 0.00 78 1005.0
20260509022219 54 188 1.0 1.0 0.00 0.00 0.00 77 1005.3
20260509021715 54 204 1.0 1.0 0.00 0.00 0.00 77 1005.4
20260509021213 54 206 1.0 1.0 0.00 0.00 0.00 77 1005.4
20260509020711 54 201 0.0 1.0 0.00 0.00 0.00 76 1005.4
20260509020208 55 180 0.0 0.0 0.00 0.00 0.00 76 1005.3
20260509015706 55 172 1.0 2.0 0.00 0.00 0.00 75 1005.3
20260509015204 55 177 0.0 1.0 0.00 0.00 0.00 75 1005.2
20260509014700 55 200 1.0 2.0 0.00 0.00 0.00 74 1005.6
20260509014156 55 177 0.0 0.0 0.00 0.00 0.00 74 1005.2
20260509013653 56 138 1.0 1.0 0.00 0.00 0.00 73 1005.3
20260509013149 56 196 0.0 1.0 0.00 0.00 0.00 73 1005.5
20260509012640 56 187 1.0 1.0 0.00 0.00 0.00 73 1005.4
20260509012137 56 151 0.0 0.0 0.00 0.00 0.00 73 1005.5
20260509011635 56 173 0.0 1.0 0.00 0.00 0.00 73 1005.3
20260509011132 57 159 0.0 0.0 0.00 0.00 0.00 72 1005.5
20260509010630 57 165 2.0 2.0 0.00 0.00 0.00 72 1005.2
20260509010126 57 172 1.0 2.0 0.00 0.00 0.00 71 1005.4
20260509005624 57 166 0.0 0.0 0.00 0.00 0.00 71 1005.4
20260509005120 58 187 2.0 2.0 0.00 0.00 0.00 70 1005.3
20260509004615 58 149 1.0 1.0 0.00 0.00 0.00 69 1005.2
20260509004113 58 103 3.0 3.0 0.00 0.00 0.00 69 1005.2
20260509003612 59 167 0.0 1.0 0.00 0.00 0.00 69 1005.2
20260509003108 59 147 1.0 2.0 0.00 0.00 0.00 68 1005.2
20260509002606 59 154 1.0 2.0 0.00 0.00 0.00 67 1005.2
20260509002103 59 182 2.0 3.0 0.00 0.00 0.00 67 1005.4
20260509001600 60 138 5.0 6.0 0.00 0.00 0.00 66 1005.3
20260509001055 60 164 3.0 7.0 0.00 0.00 0.00 67 1005.3
20260509000555 60 174 3.0 3.0 0.00 0.00 0.00 66 1005.4
20260509000050 60 142 4.0 5.0 0.00 0.00 0.00 66 1005.1
20260508235548 60 110 2.0 2.0 0.00 0.00 0.00 66 1005.5
20260508235044 61 157 2.0 3.0 0.00 0.00 0.00 66 1005.4
20260508234542 61 103 6.0 9.0 0.00 0.00 0.00 65 1005.5
20260508234039 61 118 4.0 6.0 0.00 0.00 0.00 65 1005.6
20260508233538 62 105 4.0 6.0 0.00 0.00 0.00 64 1005.6
20260508233035 62 234 2.0 2.0 0.00 0.00 0.00 64 1005.7
20260508232532 62 223 2.0 2.0 0.00 0.00 0.00 63 1005.6
20260508232029 62 177 5.0 7.0 0.00 0.00 0.00 63 1005.6
20260508231526 62 115 5.0 6.0 0.00 0.00 0.00 64 1005.8
20260508231023 62 186 3.0 3.0 0.00 0.00 0.00 64 1005.9
20260508230520 62 176 4.0 7.0 0.00 0.00 0.00 64 1005.8
20260508230017 61 135 2.0 2.0 0.00 0.00 0.00 65 1006.1
20260508225514 61 165 0.0 1.0 0.00 0.00 0.00 63 1005.8
20260508225010 61 137 4.0 6.0 0.00 0.00 0.00 62 1005.6
20260508224509 61 126 2.0 2.0 0.00 0.00 0.00 63 1006.0
20260508224005 62 127 3.0 3.0 0.00 0.00 0.00 60 1006.0
20260508223503 62 136 5.0 7.0 0.00 0.00 0.00 57 1005.9
20260508223000 62 174 4.0 5.0 0.00 0.00 0.00 54 1005.6
20260508222458 63 129 5.0 6.0 0.00 0.00 0.00 53 1006.0
20260508221954 63 68 1.0 2.0 0.00 0.00 0.00 53 1005.8
20260508221450 63 102 3.0 5.0 0.00 0.00 0.00 51 1005.8
20260508220946 63 109 2.0 2.0 0.00 0.00 0.00 54 1005.9
20260508220443 63 138 2.0 2.0 0.00 0.00 0.00 49 1006.0
20260508215939 62 123 5.0 6.0 0.00 0.00 0.00 50 1006.0
20260508215436 62 90 4.0 5.0 0.00 0.00 0.00 51 1006.1
20260508214933 62 100 4.0 5.0 0.00 0.00 0.00 51 1006.2
20260508214431 62 93 4.0 7.0 0.00 0.00 0.00 49 1006.1
20260508213926 63 153 4.0 6.0 0.00 0.00 0.00 48 1005.9
20260508213424 63 153 4.0 6.0 0.00 0.00 0.00 47 1006.0
20260508212919 64 107 4.0 6.0 0.00 0.00 0.00 46 1006.0
20260508212416 64 95 6.0 8.0 0.00 0.00 0.00 46 1006.1
20260508211912 64 173 2.0 3.0 0.00 0.00 0.00 46 1006.2
20260508211407 63 122 3.0 3.0 0.00 0.00 0.00 46 1006.2
20260508210906 64 108 6.0 6.0 0.00 0.00 0.00 45 1006.3
20260508210402 64 124 2.0 2.0 0.00 0.00 0.00 46 1006.2
20260508205858 64 132 5.0 6.0 0.00 0.00 0.00 45 1006.4
20260508205355 64 24 3.0 3.0 0.00 0.00 0.00 48 1006.4
20260508204851 64 157 5.0 6.0 0.00 0.00 0.00 43 1006.5
20260508204348 64 135 5.0 6.0 0.00 0.00 0.00 45 1006.6
20260508203844 63 169 3.0 7.0 0.00 0.00 0.00 42 1006.5
20260508203340 63 195 3.0 3.0 0.00 0.00 0.00 44 1006.6
20260508202836 64 96 4.0 5.0 0.00 0.00 0.00 42 1006.8
20260508202334 64 121 3.0 3.0 0.00 0.00 0.00 41 1006.9
20260508201831 63 137 3.0 5.0 0.00 0.00 0.00 44 1006.9
20260508201328 64 159 5.0 6.0 0.00 0.00 0.00 42 1006.9
20260508200824 63 44 2.0 2.0 0.00 0.00 0.00 42 1007.0
20260508200321 63 147 7.0 9.0 0.00 0.00 0.00 44 1006.9
20260508195817 64 121 5.0 6.0 0.00 0.00 0.00 41 1007.1
20260508195314 64 115 3.0 3.0 0.00 0.00 0.00 45 1007.0
20260508194810 64 108 4.0 5.0 0.00 0.00 0.00 43 1006.9
20260508194307 64 126 3.0 3.0 0.00 0.00 0.00 43 1007.3
20260508193804 64 124 5.0 6.0 0.00 0.00 0.00 45 1007.1
20260508193301 64 114 3.0 3.0 0.00 0.00 0.00 48 1007.3
20260508192757 64 133 4.0 5.0 0.00 0.00 0.00 46 1007.5
20260508192254 64 254 3.0 3.0 0.00 0.00 0.00 43 1007.4
20260508191751 64 113 5.0 7.0 0.00 0.00 0.00 43 1007.4
20260508191249 64 70 1.0 2.0 0.00 0.00 0.00 44 1007.5
20260508190746 64 96 1.0 2.0 0.00 0.00 0.00 44 1007.7
20260508190242 63 100 3.0 5.0 0.00 0.00 0.00 48 1007.9
20260508185738 62 82 2.0 5.0 0.00 0.00 0.00 48 1007.9
20260508185236 64 69 4.0 6.0 0.00 0.00 0.00 44 1007.8
20260508184733 64 79 5.0 6.0 0.00 0.00 0.00 45 1007.8
20260508184230 63 130 3.0 5.0 0.00 0.00 0.00 45 1008.0
20260508183727 64 118 2.0 2.0 0.00 0.00 0.00 46 1008.1
20260508183223 64 139 6.0 8.0 0.00 0.00 0.00 44 1008.1
20260508182719 64 211 1.0 2.0 0.00 0.00 0.00 44 1008.1
20260508182216 65 181 4.0 7.0 0.00 0.00 0.00 41 1008.3
20260508181712 65 120 5.0 6.0 0.00 0.00 0.00 41 1008.3
20260508181209 64 122 3.0 5.0 0.00 0.00 0.00 43 1008.4
20260508180706 64 53 4.0 5.0 0.00 0.00 0.00 43 1008.5
20260508180203 62 68 1.0 1.0 0.00 0.00 0.00 42 1008.4
20260508175659 64 62 3.0 5.0 0.00 0.00 0.00 45 1008.6
20260508175155 64 164 2.0 2.0 0.00 0.00 0.00 43 1008.8
20260508174654 63 161 3.0 3.0 0.00 0.00 0.00 43 1008.9
20260508174150 63 180 0.0 1.0 0.00 0.00 0.00 41 1009.0
20260508173647 62 59 10.0 13.0 0.00 0.00 0.00 41 1008.9
20260508173143 63 227 1.0 1.0 0.00 0.00 0.00 38 1009.2
20260508172640 62 155 1.0 1.0 0.00 0.00 0.00 42 1009.1
20260508172137 62 222 0.0 1.0 0.00 0.00 0.00 42 1009.3
20260508171633 61 153 0.0 0.0 0.00 0.00 0.00 42 1009.5
20260508171130 62 161 0.0 1.0 0.00 0.00 0.00 45 1009.5
20260508170627 61 112 4.0 5.0 0.00 0.00 0.00 41 1009.5
20260508170125 61 155 5.0 6.0 0.00 0.00 0.00 45 1009.8
20260508165622 60 189 0.0 1.0 0.00 0.00 0.00 44 1009.6
20260508165118 61 123 2.0 2.0 0.00 0.00 0.00 44 1009.5
20260508164614 60 121 1.0 1.0 0.00 0.00 0.00 43 1009.7
20260508164112 60 92 3.0 3.0 0.00 0.00 0.00 40 1010.0
20260508163609 60 132 1.0 2.0 0.00 0.00 0.00 43 1009.9
20260508163106 60 99 3.0 5.0 0.00 0.00 0.00 43 1010.1
20260508162602 60 100 4.0 5.0 0.00 0.00 0.00 46 1010.2
20260508162100 61 171 2.0 5.0 0.00 0.00 0.00 41 1010.2
20260508161556 61 116 2.0 3.0 0.00 0.00 0.00 42 1010.0
20260508161054 61 154 4.0 6.0 0.00 0.00 0.00 44 1010.2
20260508160552 60 75 1.0 1.0 0.00 0.00 0.00 49 1010.4
20260508160049 59 162 3.0 3.0 0.00 0.00 0.00 46 1010.2
20260508155546 60 106 3.0 3.0 0.00 0.00 0.00 47 1010.2
20260508155043 60 98 2.0 2.0 0.00 0.00 0.00 40 1010.2
20260508154540 60 107 1.0 2.0 0.00 0.00 0.00 46 1010.4
20260508154037 60 218 2.0 3.0 0.00 0.00 0.00 51 1010.4
20260508153533 59 131 1.0 2.0 0.00 0.00 0.00 48 1010.3
20260508153030 58 149 2.0 3.0 0.00 0.00 0.00 39 1010.5
20260508152527 58 101 4.0 5.0 0.00 0.00 0.00 54 1010.3
20260508152022 58 126 5.0 6.0 0.00 0.00 0.00 46 1010.4
20260508151520 58 172 5.0 6.0 0.00 0.00 0.00 53 1010.7
20260508151016 57 193 3.0 5.0 0.00 0.00 0.00 53 1010.5
20260508150514 57 111 3.0 5.0 0.00 0.00 0.00 59 1010.6
20260508150009 57 106 2.0 2.0 0.00 0.00 0.00 65 1010.5
20260508145506 57 156 3.0 5.0 0.00 0.00 0.00 65 1010.9
20260508145002 57 127 3.0 3.0 0.00 0.00 0.00 66 1010.6
20260508144500 55 213 1.0 1.0 0.00 0.00 0.00 69 1011.0
20260508143957 56 141 2.0 2.0 0.00 0.00 0.00 68 1010.8
20260508143455 55 117 3.0 3.0 0.00 0.00 0.00 72 1010.5
20260508142951 55 141 3.0 3.0 0.00 0.00 0.00 70 1010.8
20260508142448 54 134 1.0 2.0 0.00 0.00 0.00 74 1010.6
20260508141944 53 105 3.0 3.0 0.00 0.00 0.00 75 1010.7
20260508141441 53 130 3.0 5.0 0.00 0.00 0.00 76 1010.7
20260508140939 52 139 1.0 1.0 0.00 0.00 0.00 77 1010.7
20260508140436 52 166 1.0 2.0 0.00 0.00 0.00 77 1010.7
20260508135931 52 94 3.0 3.0 0.00 0.00 0.00 78 1010.6
20260508135428 51 61 1.0 1.0 0.00 0.00 0.00 79 1010.8
20260508134925 51 83 1.0 1.0 0.00 0.00 0.00 82 1010.6
20260508134421 50 121 1.0 1.0 0.00 0.00 0.00 83 1010.6
20260508133918 50 119 2.0 3.0 0.00 0.00 0.00 82 1010.7
20260508133416 50 111 3.0 3.0 0.00 0.00 0.00 82 1011.0
20260508132912 49 176 1.0 1.0 0.00 0.00 0.00 85 1010.8
20260508132410 48 154 3.0 6.0 0.00 0.00 0.00 86 1010.8
20260508131907 49 133 3.0 3.0 0.00 0.00 0.00 87 1010.9
20260508131402 47 74 0.0 1.0 0.00 0.00 0.00 89 1010.7
20260508130859 48 113 1.0 2.0 0.00 0.00 0.00 90 1010.8
20260508130356 47 114 1.0 1.0 0.00 0.00 0.00 91 1010.9
20260508125852 46 68 1.0 2.0 0.00 0.00 0.00 90 1010.9
20260508125348 47 141 2.0 2.0 0.00 0.00 0.00 91 1011.2
20260508124846 47 127 3.0 3.0 0.00 0.00 0.00 91 1010.9
20260508124343 47 126 0.0 0.0 0.00 0.00 0.00 93 1011.0
20260508123841 46 117 1.0 1.0 0.00 0.00 0.00 96 1010.9
20260508123340 45 56 0.0 1.0 0.00 0.00 0.00 98 1010.8
20260508122836 45 93 0.0 0.0 0.00 0.00 0.00 99 1010.6
20260508122332 44 81 0.0 0.0 0.00 0.00 0.00 99 1010.8
20260508121830 43 90 0.0 1.0 0.00 0.00 0.00 99 1010.9
20260508121328 43 110 0.0 0.0 0.00 0.00 0.00 99 1011.0
20260508120826 42 96 0.0 0.0 0.00 0.00 0.00 99 1011.1
20260508120323 42 330 0.0 0.0 0.00 0.00 0.00 99 1010.8
20260508115820 42 273 0.0 0.0 0.00 0.00 0.00 99 1010.8
20260508115318 41 273 0.0 0.0 0.00 0.00 0.00 99 1011.0
20260508114814 41 273 0.0 0.0 0.00 0.00 0.00 99 1010.9
20260508114311 40 273 0.0 0.0 0.00 0.00 0.00 99 1010.9
20260508113808 39 273 0.0 0.0 0.00 0.00 0.00 99 1010.6
20260508113306 38 273 0.0 0.0 0.00 0.00 0.00 99 1010.5
20260508112802 37 273 0.0 0.0 0.00 0.00 0.00 99 1010.7
20260508112259 37 273 0.0 0.0 0.00 0.00 0.00 99 1010.6
20260508111755 37 273 0.0 0.0 0.00 0.00 0.00 99 1010.7
20260508111254 36 273 0.0 0.0 0.00 0.00 0.00 99 1010.6
20260508110750 36 273 0.0 0.0 0.00 0.00 0.00 99 1010.5
20260508110248 35 273 0.0 0.0 0.00 0.00 0.00 99 1010.7
20260508105747 35 273 0.0 0.0 0.00 0.00 0.00 99 1010.5
20260508105244 35 273 0.0 0.0 0.00 0.00 0.00 99 1010.7
20260508104742 35 273 0.0 0.0 0.00 0.00 0.00 99 1010.6
20260508104238 35 272 0.0 0.0 0.00 0.00 0.00 99 1010.6
20260508103736 35 272 0.0 0.0 0.00 0.00 0.00 99 1010.6
20260508103232 35 272 0.0 0.0 0.00 0.00 0.00 99 1010.6
20260508102730 35 273 0.0 0.0 0.00 0.00 0.00 99 1010.6
20260508102228 35 273 0.0 0.0 0.00 0.00 0.00 99 1010.7
20260508101725 35 273 0.0 0.0 0.00 0.00 0.00 99 1010.7
20260508101222 35 263 0.0 0.0 0.00 0.00 0.00 99 1010.6
20260508100719 35 263 0.0 0.0 0.00 0.00 0.00 99 1010.6
20260508100217 35 263 0.0 0.0 0.00 0.00 0.00 99 1010.7
20260508095713 35 263 0.0 0.0 0.00 0.00 0.00 99 1010.5
20260508095211 35 262 0.0 0.0 0.00 0.00 0.00 99 1010.7
20260508094707 35 262 0.0 0.0 0.00 0.00 0.00 99 1010.4
20260508094205 35 262 0.0 0.0 0.00 0.00 0.00 99 1010.7
20260508093702 35 270 0.0 0.0 0.00 0.00 0.00 99 1010.7
20260508093200 36 271 0.0 0.0 0.00 0.00 0.00 99 1010.8
20260508092656 36 271 0.0 0.0 0.00 0.00 0.00 99 1010.7
20260508092155 36 271 0.0 0.0 0.00 0.00 0.00 99 1010.8
20260508091652 36 270 0.0 0.0 0.00 0.00 0.00 99 1010.8
20260508091149 36 269 0.0 0.0 0.00 0.00 0.00 99 1010.8
20260508090646 36 264 0.0 0.0 0.00 0.00 0.00 99 1010.8
20260508090144 36 264 0.0 0.0 0.00 0.00 0.00 99 1010.8
20260508085639 36 264 0.0 0.0 0.00 0.00 0.00 99 1010.9
20260508085137 36 264 0.0 0.0 0.00 0.00 0.00 99 1010.7
20260508084633 36 264 0.0 0.0 0.00 0.00 0.00 99 1011.0
20260508084131 36 264 0.0 0.0 0.00 0.00 0.00 99 1010.9
20260508083628 37 264 0.0 0.0 0.00 0.00 0.00 99 1011.0
20260508083125 37 264 0.0 0.0 0.00 0.00 0.00 99 1011.0
20260508082620 37 266 0.0 0.0 0.00 0.00 0.00 99 1010.8
20260508082118 37 262 0.0 0.0 0.00 0.00 0.00 99 1010.9
20260508081616 37 262 0.0 0.0 0.00 0.00 0.00 99 1010.9
20260508081112 37 262 0.0 0.0 0.00 0.00 0.00 99 1010.9
20260508080609 37 262 0.0 0.0 0.00 0.00 0.00 99 1010.9
20260508080108 37 261 0.0 0.0 0.00 0.00 0.00 99 1010.9
20260508075603 37 261 0.0 0.0 0.00 0.00 0.00 99 1011.0
20260508075100 37 267 0.0 0.0 0.00 0.00 0.00 99 1011.1
20260508074558 37 267 0.0 0.0 0.00 0.00 0.00 99 1011.3
20260508074055 38 267 0.0 0.0 0.00 0.00 0.00 99 1011.2
20260508073552 38 267 0.0 0.0 0.00 0.00 0.00 99 1011.2
20260508073050 38 268 0.0 0.0 0.00 0.00 0.00 99 1011.3
20260508072545 39 268 0.0 0.0 0.00 0.00 0.00 99 1011.4
20260508072042 39 289 0.0 0.0 0.00 0.00 0.00 99 1011.5
20260508071540 39 305 0.0 0.0 0.00 0.00 0.00 99 1011.4
20260508071038 38 299 0.0 0.0 0.00 0.00 0.00 99 1011.4
20260508070536 38 282 0.0 0.0 0.00 0.00 0.00 99 1011.5
20260508070034 38 278 0.0 0.0 0.00 0.00 0.00 99 1011.5
20260508065531 38 274 0.0 0.0 0.00 0.00 0.00 99 1011.3
20260508065029 38 262 0.0 0.0 0.00 0.00 0.00 99 1011.6
20260508064527 38 261 0.0 1.0 0.00 0.00 0.00 98 1011.4
20260508064024 38 258 0.0 0.0 0.00 0.00 0.00 98 1011.5
20260508063521 38 258 1.0 1.0 0.00 0.00 0.00 98 1011.5
20260508063019 38 258 0.0 0.0 0.00 0.00 0.00 98 1011.6